TimeEDT,TemperatureF,Dew PointF,Humidity,Sea Level PressureIn,VisibilityMPH,Wind Direction,Wind SpeedMPH,Gust SpeedMPH,PrecipitationIn,Events,Conditions,WindDirDegrees,DateUTC
12:16 AM,38.7,25.3,59,29.79,10.0,West,15.0,26.5,N/A,,Overcast,280,2013-10-22 04:16:00
12:36 AM,39.0,25.2,58,29.78,10.0,WNW,17.3,28.8,N/A,,Overcast,290,2013-10-22 04:36:00
12:51 AM,39.2,24.4,56,29.78,10.0,West,13.8,28.8,N/A,,Overcast,260,2013-10-22 04:51:00
1:11 AM,38.8,24.3,56,29.78,10.0,West,11.5,23.0,N/A,,Overcast,270,2013-10-22 05:11:00
1:31 AM,38.8,26.4,61,29.78,10.0,WNW,18.4,23.0,N/A,,Overcast,290,2013-10-22 05:31:00
1:54 AM,38.8,27.0,62,29.78,10.0,West,12.7,26.5,N/A,,Overcast,260,2013-10-22 05:54:00
2:14 AM,39.0,27.3,63,29.78,10.0,West,13.8,24.2,N/A,,Overcast,270,2013-10-22 06:14:00
2:34 AM,39.2,28.0,64,29.77,10.0,West,12.7,25.3,N/A,,Overcast,270,2013-10-22 06:34:00
2:51 AM,39.4,29.1,67,29.77,10.0,West,13.8,28.8,N/A,,Overcast,270,2013-10-22 06:51:00
3:11 AM,39.7,29.8,68,29.77,10.0,West,13.8,20.7,N/A,,Overcast,270,2013-10-22 07:11:00
3:31 AM,39.7,29.8,68,29.77,10.0,West,15.0,24.2,N/A,,Overcast,260,2013-10-22 07:31:00
3:51 AM,40.1,30.4,68,29.77,10.0,West,11.5,34.5,N/A,,Overcast,260,2013-10-22 07:51:00
4:11 AM,40.1,30.7,69,29.77,10.0,West,16.1,25.3,N/A,,Overcast,270,2013-10-22 08:11:00
4:31 AM,39.9,31.1,71,29.77,10.0,West,15.0,26.5,N/A,,Overcast,270,2013-10-22 08:31:00
4:51 AM,40.1,31.5,71,29.76,10.0,West,15.0,26.5,N/A,,Overcast,280,2013-10-22 08:51:00
5:12 AM,40.3,31.8,72,29.76,10.0,WNW,20.7,28.8,N/A,,Overcast,290,2013-10-22 09:12:00
5:32 AM,41.0,32.2,71,29.76,10.0,WNW,17.3,27.6,N/A,,Overcast,290,2013-10-22 09:32:00
5:52 AM,41.4,32.2,70,29.76,10.0,West,20.7,31.1,N/A,,Overcast,280,2013-10-22 09:52:00
6:12 AM,41.5,32.2,69,29.76,10.0,WNW,19.6,29.9,N/A,,Overcast,290,2013-10-22 10:12:00
6:32 AM,41.9,32.2,68,29.77,10.0,WNW,17.3,29.9,N/A,,Overcast,300,2013-10-22 10:32:00
6:52 AM,41.9,32.9,70,29.77,10.0,WNW,17.3,27.6,N/A,,Overcast,290,2013-10-22 10:52:00
7:12 AM,42.1,32.0,67,29.77,10.0,NW,21.9,29.9,N/A,,Overcast,310,2013-10-22 11:12:00
7:32 AM,42.1,32.2,68,29.78,10.0,WNW,19.6,27.6,N/A,,Overcast,300,2013-10-22 11:32:00
7:52 AM,42.1,32.0,67,29.78,10.0,NW,17.3,29.9,N/A,,Overcast,310,2013-10-22 11:52:00
8:12 AM,42.1,32.0,67,29.78,10.0,NW,17.3,24.2,N/A,,Overcast,310,2013-10-22 12:12:00
8:33 AM,41.9,31.8,67,29.80,10.0,NW,16.1,24.2,N/A,,Mostly Cloudy,310,2013-10-22 12:33:00
8:53 AM,42.1,32.0,67,29.80,10.0,NW,17.3,25.3,N/A,,Mostly Cloudy,310,2013-10-22 12:53:00
9:13 AM,42.4,31.8,66,29.81,10.0,WNW,15.0,21.9,N/A,,Mostly Cloudy,300,2013-10-22 13:13:00
9:33 AM,42.8,32.2,66,29.82,10.0,NW,17.3,24.2,N/A,,Mostly Cloudy,310,2013-10-22 13:33:00
9:53 AM,43.0,32.4,66,29.82,10.0,NW,16.1,-,N/A,,Overcast,310,2013-10-22 13:53:00
10:13 AM,43.0,33.4,69,29.82,10.0,NW,15.0,24.2,N/A,,Overcast,310,2013-10-22 14:13:00
10:33 AM,43.3,32.5,66,29.83,10.0,NW,18.4,23.0,N/A,,Overcast,310,2013-10-22 14:33:00
10:54 AM,42.8,35.1,74,29.83,10.0,NW,13.8,18.4,N/A,,Overcast,320,2013-10-22 14:54:00
11:14 AM,43.3,33.8,69,29.83,10.0,WNW,13.8,20.7,N/A,,Overcast,300,2013-10-22 15:14:00
11:34 AM,44.6,34.0,66,29.84,10.0,WNW,16.1,20.7,N/A,,Mostly Cloudy,300,2013-10-22 15:34:00
11:54 AM,45.3,32.2,60,29.84,10.0,NNW,10.4,21.9,N/A,,Mostly Cloudy,330,2013-10-22 15:54:00
12:14 PM,45.5,33.4,63,29.84,10.0,NW,10.4,20.7,N/A,,Overcast,320,2013-10-22 16:14:00
12:34 PM,45.5,33.6,63,29.85,10.0,NW,10.4,18.4,N/A,,Overcast,310,2013-10-22 16:34:00
12:54 PM,44.4,34.7,69,29.85,7.0,WNW,9.2,28.8,N/A,Rain,Light Rain,300,2013-10-22 16:54:00
1:14 PM,46.4,35.8,67,29.85,10.0,NW,15.0,20.7,N/A,,Mostly Cloudy,310,2013-10-22 17:14:00
1:34 PM,46.2,33.8,62,29.84,10.0,NW,11.5,20.7,N/A,,Mostly Cloudy,310,2013-10-22 17:34:00
1:54 PM,48.4,34.0,58,29.84,10.0,NW,12.7,23.0,N/A,,Mostly Cloudy,310,2013-10-22 17:54:00
2:14 PM,48.6,34.0,57,29.83,10.0,NW,12.7,23.0,N/A,,Mostly Cloudy,320,2013-10-22 18:14:00
2:34 PM,47.8,33.1,57,29.84,10.0,NW,12.7,20.7,N/A,,Mostly Cloudy,320,2013-10-22 18:34:00
2:54 PM,45.5,31.6,58,29.84,10.0,NW,11.5,18.4,N/A,,Mostly Cloudy,320,2013-10-22 18:54:00
3:15 PM,47.5,31.8,55,29.84,10.0,NW,10.4,18.4,N/A,,Mostly Cloudy,310,2013-10-22 19:15:00
3:35 PM,46.0,32.0,58,29.84,10.0,WNW,10.4,19.6,N/A,,Mostly Cloudy,300,2013-10-22 19:35:00
3:55 PM,45.9,31.8,58,29.84,10.0,WNW,10.4,17.3,N/A,,Overcast,300,2013-10-22 19:55:00
4:15 PM,44.2,32.0,62,29.85,10.0,WNW,5.8,-,N/A,,Mostly Cloudy,290,2013-10-22 20:15:00
4:35 PM,45.1,31.8,60,29.85,10.0,NW,6.9,-,N/A,,Overcast,320,2013-10-22 20:35:00
4:55 PM,45.0,31.8,60,29.85,10.0,West,4.6,-,N/A,,Overcast,270,2013-10-22 20:55:00
5:15 PM,43.2,33.4,69,29.85,10.0,Calm,Calm,-,N/A,,Overcast,0,2013-10-22 21:15:00
5:36 PM,45.0,31.1,58,29.85,10.0,NW,8.1,-,N/A,,Overcast,310,2013-10-22 21:36:00
5:56 PM,44.1,30.7,59,29.86,10.0,WNW,8.1,-,N/A,,Scattered Clouds,300,2013-10-22 21:56:00
6:16 PM,41.9,32.0,68,29.86,10.0,NW,12.7,-,N/A,,Clear,310,2013-10-22 22:16:00
6:36 PM,41.7,31.1,66,29.86,10.0,NW,4.6,-,N/A,,Mostly Cloudy,320,2013-10-22 22:36:00
6:56 PM,42.1,33.4,71,29.87,10.0,NNE,6.9,-,N/A,,Mostly Cloudy,20,2013-10-22 22:56:00
7:11 PM,41.7,34.7,76,29.87,10.0,NNW,9.2,-,N/A,,Overcast,340,2013-10-22 23:11:00
7:31 PM,39.6,35.4,85,29.88,4.0,North,5.8,-,N/A,Rain,Rain,360,2013-10-22 23:31:00
7:51 PM,39.6,36.0,87,29.88,10.0,NNE,8.1,16.1,N/A,Rain,Light Rain,20,2013-10-22 23:51:00
8:11 PM,39.6,36.1,88,29.88,10.0,North,5.8,-,N/A,,Overcast,360,2013-10-23 00:11:00
8:31 PM,40.1,36.1,86,29.88,10.0,NNW,11.5,17.3,N/A,,Overcast,340,2013-10-23 00:31:00
8:51 PM,39.2,34.5,83,29.88,10.0,North,9.2,20.7,N/A,,Overcast,360,2013-10-23 00:51:00
9:11 PM,38.5,34.9,87,29.89,10.0,North,9.2,-,N/A,,Drizzle,350,2013-10-23 01:11:00
9:32 PM,38.3,34.7,87,29.88,10.0,North,5.8,-,N/A,,Overcast,360,2013-10-23 01:32:00
9:52 PM,38.3,35.2,89,29.89,5.0,North,8.1,-,N/A,Rain,Rain,360,2013-10-23 01:52:00
10:12 PM,36.5,33.8,90,29.89,2.5,ENE,3.5,-,N/A,Rain,Rain,70,2013-10-23 02:12:00
10:32 PM,37.0,34.7,91,29.89,3.0,ESE,3.5,-,N/A,,Overcast,120,2013-10-23 02:32:00
10:52 PM,36.7,34.3,91,29.89,3.0,Calm,Calm,-,N/A,Rain,Light Rain,0,2013-10-23 02:52:00
11:12 PM,36.5,34.5,93,29.89,7.0,Calm,Calm,-,N/A,Rain,Light Rain,0,2013-10-23 03:12:00
11:32 PM,37.4,34.3,89,29.89,4.0,North,5.8,-,N/A,Rain,Rain,10,2013-10-23 03:32:00
11:52 PM,37.6,34.0,87,29.88,10.0,Calm,Calm,-,N/A,Rain,Light Rain,0,2013-10-23 03:52:00